Location: Zagreb
(45.8000°N, 16.0000°E)
Time: 15:34:18
(UTC+02:00)

Courier 1B Rocket - Pass Details

Date: 27 January 2022
Orbit: 920 x 1202 km, 28.2° (Epoch: 17 May)

Event Time Altitude Azimuth Distance (km) Brightness Sun altitude
Exits shadow 04:20:30 11° 176° (S) 2,666 7.2 -31.9°
Drops below altitude 10° 04:21:18 10° 169° (S) 2,763 7.4 -31.7°
Sets 04:25:30 0° 144° (SE) 3,651 8.4 -31.0°
